JTC319 GCLP-KOPF

Flight info

Callsign JTC319
Flight time N/A
Altitude 38000
Route HIE5A HIE DCT ROSTA DCT PIBIL DCT SORAD DCT 3030N DCT 3035N DCT 3040N DCT 3045N DCT 3050N DCT 3055N DCT AMENO M593 GRATX M329 ZQA OLAHS3
Aircraft A319/M-SDE3FGHIRWY/LB1

Departure

Time N/A
Airport Gran Canaria Airport (GCLP)

Arrival

Time 2026-05-09 03:47
Airport Miami-Opa Locka Executive Airport (KOPF)
Time Latitude Longitude Altitude Speed Heading
2026-05-09 03:03 25.57473 -76.58802 38019 ft 404 kts 239°
2026-05-09 03:03 25.55858 -76.61347 38020 ft 404 kts 239°
2026-05-09 03:04 25.52626 -76.66440 38020 ft 404 kts 239°
2026-05-09 03:04 25.49388 -76.71536 38019 ft 404 kts 239°
2026-05-09 03:05 25.46156 -76.76623 38020 ft 404 kts 239°
2026-05-09 03:05 25.42919 -76.81713 38017 ft 404 kts 239°
2026-05-09 03:06 25.39700 -76.86762 38020 ft 404 kts 239°
2026-05-09 03:06 25.36460 -76.91839 38020 ft 404 kts 239°
2026-05-09 03:07 25.33212 -76.96926 37999 ft 406 kts 238°
2026-05-09 03:07 25.29947 -77.02028 38000 ft 406 kts 238°
2026-05-09 03:08 25.26684 -77.07126 37994 ft 406 kts 238°
2026-05-09 03:08 25.23419 -77.12222 37994 ft 407 kts 238°
2026-05-09 03:09 25.20148 -77.17320 37996 ft 406 kts 238°
2026-05-09 03:09 25.16881 -77.22414 37993 ft 406 kts 238°
2026-05-09 03:10 25.13615 -77.27507 37991 ft 406 kts 238°
2026-05-09 03:10 25.10340 -77.32592 37989 ft 406 kts 238°
2026-05-09 03:11 25.07064 -77.37678 37972 ft 408 kts 238°
2026-05-09 03:11 25.04665 -77.43227 37966 ft 399 kts 260°
2026-05-09 03:11 25.04327 -77.46244 37969 ft 396 kts 271°
2026-05-09 03:12 25.04578 -77.49256 37969 ft 394 kts 283°
2026-05-09 03:12 25.06436 -77.54927 37972 ft 394 kts 292°
2026-05-09 03:13 25.09581 -77.63315 37974 ft 394 kts 292°
2026-05-09 03:13 25.11646 -77.68858 37973 ft 393 kts 292°
2026-05-09 03:14 25.13724 -77.74431 37990 ft 392 kts 292°
2026-05-09 03:14 25.15834 -77.80087 37639 ft 410 kts 292°
2026-05-09 03:15 25.16921 -77.83015 37383 ft 413 kts 292°
2026-05-09 03:15 25.18009 -77.85951 37123 ft 413 kts 292°
2026-05-09 03:15 25.19099 -77.88882 36871 ft 412 kts 292°
2026-05-09 03:15 25.20186 -77.91801 36623 ft 410 kts 292°
2026-05-09 03:16 25.21267 -77.94707 36376 ft 408 kts 291°
2026-05-09 03:16 25.22343 -77.97601 36133 ft 406 kts 291°
2026-05-09 03:16 25.23409 -78.00476 35884 ft 403 kts 291°
2026-05-09 03:16 25.24463 -78.03324 35443 ft 399 kts 291°
2026-05-09 03:17 25.25507 -78.06150 34937 ft 396 kts 291°
2026-05-09 03:17 25.26546 -78.08959 34433 ft 394 kts 291°
2026-05-09 03:17 25.27579 -78.11753 33913 ft 392 kts 291°
2026-05-09 03:17 25.28605 -78.14533 33380 ft 389 kts 291°
2026-05-09 03:18 25.29620 -78.17288 32848 ft 386 kts 291°
2026-05-09 03:18 25.30637 -78.20026 32320 ft 384 kts 292°
2026-05-09 03:18 25.31333 -78.21824 31973 ft 382 kts 292°
2026-05-09 03:18 25.32403 -78.24502 31456 ft 380 kts 293°
2026-05-09 03:19 25.33485 -78.27162 30958 ft 378 kts 293°
2026-05-09 03:19 25.34563 -78.29803 30461 ft 376 kts 293°
2026-05-09 03:19 25.35633 -78.32436 29961 ft 374 kts 293°
2026-05-09 03:19 25.36692 -78.35051 29444 ft 371 kts 293°
2026-05-09 03:20 25.37738 -78.37643 28989 ft 367 kts 293°
2026-05-09 03:20 25.38768 -78.40216 28544 ft 364 kts 292°
2026-05-09 03:20 25.39784 -78.42771 28088 ft 362 kts 292°
2026-05-09 03:20 25.40793 -78.45312 27636 ft 360 kts 292°
2026-05-09 03:21 25.41790 -78.47839 27184 ft 358 kts 292°
2026-05-09 03:21 25.42767 -78.50364 26725 ft 356 kts 292°
2026-05-09 03:21 25.43730 -78.52878 26258 ft 354 kts 292°
2026-05-09 03:21 25.44686 -78.55386 25778 ft 353 kts 292°
2026-05-09 03:22 25.45639 -78.57889 25297 ft 352 kts 292°
2026-05-09 03:22 25.46590 -78.60387 24797 ft 352 kts 292°
2026-05-09 03:22 25.47545 -78.62882 24299 ft 352 kts 292°
2026-05-09 03:22 25.48502 -78.65371 23784 ft 352 kts 292°
2026-05-09 03:23 25.49460 -78.67868 23214 ft 352 kts 292°
2026-05-09 03:23 25.50411 -78.70359 22699 ft 350 kts 292°
2026-05-09 03:23 25.51355 -78.72833 22193 ft 348 kts 292°
2026-05-09 03:23 25.52295 -78.75297 21707 ft 346 kts 291°
2026-05-09 03:24 25.53229 -78.77743 21210 ft 344 kts 291°
2026-05-09 03:24 25.54158 -78.80175 20743 ft 342 kts 292°
2026-05-09 03:24 25.55084 -78.82594 20266 ft 341 kts 292°
2026-05-09 03:24 25.56006 -78.85006 19794 ft 340 kts 292°
2026-05-09 03:25 25.56925 -78.87412 19322 ft 339 kts 292°
2026-05-09 03:25 25.57839 -78.89812 18864 ft 338 kts 292°
2026-05-09 03:25 25.58754 -78.92214 18397 ft 338 kts 292°
2026-05-09 03:25 25.59668 -78.94612 17894 ft 338 kts 292°
2026-05-09 03:26 25.60578 -78.97005 17432 ft 336 kts 292°
2026-05-09 03:26 25.61482 -78.99391 16980 ft 335 kts 292°
2026-05-09 03:26 25.62383 -79.01767 16530 ft 334 kts 292°
2026-05-09 03:26 25.63281 -79.04134 16098 ft 333 kts 292°
2026-05-09 03:27 25.64176 -79.06499 15672 ft 332 kts 292°
2026-05-09 03:27 25.65065 -79.08860 15236 ft 332 kts 291°
2026-05-09 03:27 25.65949 -79.11220 14803 ft 332 kts 291°
2026-05-09 03:27 25.66823 -79.13553 14381 ft 332 kts 291°
2026-05-09 03:28 25.67710 -79.15915 13946 ft 332 kts 291°
2026-05-09 03:28 25.68591 -79.18257 13636 ft 327 kts 292°
2026-05-09 03:28 25.69452 -79.20551 13467 ft 318 kts 291°
2026-05-09 03:28 25.70292 -79.22800 13140 ft 315 kts 291°
2026-05-09 03:29 25.71127 -79.25035 12780 ft 313 kts 291°
2026-05-09 03:29 25.71961 -79.27264 12406 ft 312 kts 291°
2026-05-09 03:29 25.72788 -79.29482 12028 ft 311 kts 291°
2026-05-09 03:29 25.73607 -79.31689 11547 ft 308 kts 290°
2026-05-09 03:30 25.74413 -79.33885 10924 ft 307 kts 290°
2026-05-09 03:30 25.75212 -79.36069 10351 ft 306 kts 290°
2026-05-09 03:30 25.76010 -79.38248 10098 ft 302 kts 290°
2026-05-09 03:30 25.76798 -79.40399 9989 ft 301 kts 290°
2026-05-09 03:31 25.77590 -79.42561 9501 ft 305 kts 290°
2026-05-09 03:31 25.78380 -79.44724 9109 ft 302 kts 290°
2026-05-09 03:31 25.79167 -79.46881 8737 ft 299 kts 290°
2026-05-09 03:31 25.79945 -79.49010 8352 ft 297 kts 290°
2026-05-09 03:32 25.80719 -79.51125 7943 ft 295 kts 290°
2026-05-09 03:32 25.81478 -79.53199 7552 ft 293 kts 291°
2026-05-09 03:32 25.82242 -79.55289 7163 ft 291 kts 291°
2026-05-09 03:32 25.83001 -79.57362 6770 ft 289 kts 291°
2026-05-09 03:33 25.83754 -79.59421 6371 ft 287 kts 291°
2026-05-09 03:33 25.84504 -79.61466 5944 ft 285 kts 291°
2026-05-09 03:33 25.85255 -79.63497 5498 ft 283 kts 292°
2026-05-09 03:33 25.86052 -79.65489 5096 ft 281 kts 294°
2026-05-09 03:34 25.86881 -79.67424 4993 ft 276 kts 295°
2026-05-09 03:34 25.87717 -79.69343 5001 ft 277 kts 295°
2026-05-09 03:34 25.88556 -79.71265 5002 ft 277 kts 295°
2026-05-09 03:34 25.89393 -79.73191 5001 ft 277 kts 295°
2026-05-09 03:35 25.90223 -79.75114 5003 ft 276 kts 295°
2026-05-09 03:35 25.91047 -79.77036 5002 ft 275 kts 295°
2026-05-09 03:35 25.91869 -79.78957 5003 ft 275 kts 295°
2026-05-09 03:35 25.92686 -79.80874 5002 ft 272 kts 295°
2026-05-09 03:36 25.93492 -79.82770 5005 ft 270 kts 295°
2026-05-09 03:36 25.94292 -79.84655 5003 ft 270 kts 295°
2026-05-09 03:36 25.95094 -79.86542 5003 ft 270 kts 295°
2026-05-09 03:36 25.95893 -79.88422 5000 ft 269 kts 295°
2026-05-09 03:37 25.96688 -79.90297 4998 ft 268 kts 295°
2026-05-09 03:37 25.97487 -79.92176 5001 ft 270 kts 295°
2026-05-09 03:37 25.98258 -79.94003 5000 ft 270 kts 293°
2026-05-09 03:37 25.98759 -79.96004 4999 ft 270 kts 278°
2026-05-09 03:38 25.98847 -79.98091 4998 ft 271 kts 271°
2026-05-09 03:38 25.98890 -80.00177 4996 ft 270 kts 271°
2026-05-09 03:38 25.98940 -80.02264 4993 ft 270 kts 272°
2026-05-09 03:38 25.98993 -80.04351 4903 ft 269 kts 272°
2026-05-09 03:39 25.99045 -80.06422 4442 ft 267 kts 272°
2026-05-09 03:39 25.99095 -80.08475 3994 ft 266 kts 272°
2026-05-09 03:39 25.99142 -80.10527 3519 ft 266 kts 272°
2026-05-09 03:39 25.99189 -80.12550 3097 ft 265 kts 272°
2026-05-09 03:40 25.99236 -80.14597 2622 ft 266 kts 271°
2026-05-09 03:40 25.99283 -80.16652 2143 ft 267 kts 271°
2026-05-09 03:40 25.99331 -80.18722 1993 ft 270 kts 270°
2026-05-09 03:40 25.99379 -80.20825 1992 ft 275 kts 270°
2026-05-09 03:41 25.99425 -80.22959 1992 ft 274 kts 270°
2026-05-09 03:41 25.99469 -80.25043 1994 ft 262 kts 270°
2026-05-09 03:41 25.99512 -80.26997 1988 ft 243 kts 270°
2026-05-09 03:41 25.99553 -80.28805 1995 ft 227 kts 271°
2026-05-09 03:42 25.99590 -80.30514 1995 ft 215 kts 270°
2026-05-09 03:42 25.99624 -80.32129 1985 ft 203 kts 270°
2026-05-09 03:42 25.99657 -80.33675 1989 ft 198 kts 269°
2026-05-09 03:42 25.99688 -80.35060 1907 ft 197 kts 269°
2026-05-09 03:43 25.99693 -80.36557 1809 ft 189 kts 262°
2026-05-09 03:43 25.99153 -80.37818 1744 ft 178 kts 220°
2026-05-09 03:43 25.98103 -80.38427 1719 ft 169 kts 188°
2026-05-09 03:43 25.96965 -80.38340 1717 ft 163 kts 156°
2026-05-09 03:44 25.96044 -80.37682 1697 ft 156 kts 131°
2026-05-09 03:44 25.95436 -80.36690 1590 ft 154 kts 121°
2026-05-09 03:44 25.94875 -80.35684 1426 ft 153 kts 121°
2026-05-09 03:44 25.94317 -80.34687 1254 ft 150 kts 120°
2026-05-09 03:45 25.93774 -80.33718 1075 ft 142 kts 120°
2026-05-09 03:45 25.93272 -80.32823 888 ft 132 kts 121°
2026-05-09 03:45 25.92801 -80.31983 726 ft 126 kts 120°
2026-05-09 03:45 25.92345 -80.31169 564 ft 123 kts 120°
2026-05-09 03:46 25.91899 -80.30368 387 ft 122 kts 118°
2026-05-09 03:46 25.91451 -80.29577 217 ft 120 kts 118°
2026-05-09 03:46 25.91014 -80.28804 70 ft 117 kts 120°
2026-05-09 03:46 25.90620 -80.28093 25 ft 95 kts 120°
2026-05-09 03:47 25.90369 -80.27646 22 ft 43 kts 122°
2026-05-09 03:47 25.90295 -80.27494 18 ft 22 kts 110°
2026-05-09 03:47 25.90371 -80.27428 18 ft 18 kts 328°
2026-05-09 03:47 25.90444 -80.27548 20 ft 19 kts 302°
2026-05-09 03:48 25.90519 -80.27682 21 ft 22 kts 304°
2026-05-09 03:48 25.90601 -80.27780 23 ft 15 kts 345°
2026-05-09 03:48 25.90684 -80.27725 23 ft 16 kts 31°
2026-05-09 03:48 25.90788 -80.27653 21 ft 20 kts 31°
2026-05-09 03:49 25.90914 -80.27566 20 ft 22 kts 31°
2026-05-09 03:49 25.91053 -80.27472 21 ft 24 kts 31°
2026-05-09 03:49 25.91145 -80.27382 22 ft 10 kts 73°
2026-05-09 03:49 25.91149 -80.27302 24 ft 11 kts 89°
2026-05-09 03:50 25.91152 -80.27208 28 ft 14 kts 86°
2026-05-09 03:50 25.91158 -80.27098 23 ft 12 kts 88°
2026-05-09 03:50 25.91147 -80.27026 24 ft 8 kts 142°
2026-05-09 03:50 25.91084 -80.27022 22 ft 9 kts 181°
2026-05-09 03:51 25.91025 -80.27024 22 ft 7 kts 182°
2026-05-09 03:51 25.91007 -80.27024 22 ft 0 kts 180°
2026-05-09 03:51 25.90996 -80.27024 22 ft 4 kts 180°
2026-05-09 03:52 25.90957 -80.27024 22 ft 6 kts 180°
2026-05-09 03:52 25.90926 -80.27029 21 ft 3 kts 207°
2026-05-09 03:52 25.90919 -80.27054 22 ft 4 kts 287°
2026-05-09 03:52 25.90923 -80.27088 20 ft 4 kts 275°
2026-05-09 03:53 25.90923 -80.27090 20 ft 0 kts 275°